TimeEDT,TemperatureF,Dew PointF,Humidity,Sea Level PressureIn,VisibilityMPH,Wind Direction,Wind SpeedMPH,Gust SpeedMPH,PrecipitationIn,Events,Conditions,WindDirDegrees,DateUTC
12:06 AM,69.8,64.4,83,30.20,10.0,North,3.5,-,N/A,,Overcast,10,2013-08-19 04:06:00
12:14 AM,69.8,64.4,83,30.20,10.0,North,3.5,-,N/A,,Overcast,10,2013-08-19 04:14:00
12:44 AM,69.8,64.4,83,30.20,10.0,NNE,3.5,-,N/A,,Overcast,20,2013-08-19 04:44:00
12:54 AM,70.0,64.0,81,30.19,10.0,NNE,3.5,-,N/A,,Overcast,30,2013-08-19 04:54:00
1:54 AM,71.1,64.0,78,30.18,10.0,Calm,Calm,-,N/A,,Overcast,0,2013-08-19 05:54:00
2:54 AM,70.0,64.0,81,30.16,8.0,Calm,Calm,-,N/A,,Overcast,0,2013-08-19 06:54:00
3:54 AM,71.1,64.0,78,30.15,10.0,Calm,Calm,-,N/A,,Overcast,0,2013-08-19 07:54:00
4:54 AM,70.0,64.0,81,30.16,8.0,Calm,Calm,-,N/A,,Mostly Cloudy,0,2013-08-19 08:54:00
5:54 AM,71.1,64.9,81,30.16,9.0,Calm,Calm,-,N/A,,Overcast,0,2013-08-19 09:54:00
6:40 AM,69.8,64.4,83,30.17,6.0,Calm,Calm,-,N/A,,Haze,0,2013-08-19 10:40:00
6:54 AM,70.0,64.0,81,30.17,10.0,Calm,Calm,-,N/A,,Mostly Cloudy,0,2013-08-19 10:54:00
7:54 AM,71.1,64.9,81,30.17,9.0,Calm,Calm,-,N/A,,Overcast,0,2013-08-19 11:54:00
8:54 AM,72.0,64.9,78,30.17,9.0,ENE,3.5,-,0.01,Rain,Light Rain,60,2013-08-19 12:54:00
9:23 AM,73.4,66.2,78,30.17,9.0,Calm,Calm,-,0.01,Rain,Light Rain,0,2013-08-19 13:23:00
9:54 AM,73.9,64.9,73,30.17,10.0,Calm,Calm,-,0.02,Rain,Light Rain,0,2013-08-19 13:54:00
10:54 AM,75.0,64.9,71,30.17,10.0,SSE,3.5,-,0.00,,Overcast,150,2013-08-19 14:54:00
11:03 AM,75.2,64.4,69,30.17,10.0,Calm,Calm,-,N/A,,Overcast,0,2013-08-19 15:03:00
11:52 AM,73.4,66.2,78,30.15,10.0,SSW,4.6,-,0.00,Rain,Light Rain,200,2013-08-19 15:52:00
11:54 AM,73.9,66.0,76,30.15,10.0,SSW,4.6,-,0.00,Rain,Light Rain,200,2013-08-19 15:54:00
12:10 PM,73.4,66.2,78,30.15,10.0,South,4.6,-,0.00,Rain,Light Rain,190,2013-08-19 16:10:00
12:54 PM,73.9,66.0,76,30.16,10.0,SW,8.1,-,0.00,Rain,Light Rain,220,2013-08-19 16:54:00
1:18 PM,75.2,66.2,73,30.16,10.0,SSW,5.8,-,0.00,Rain,Light Rain,210,2013-08-19 17:18:00
1:54 PM,75.9,66.0,71,30.14,10.0,SW,4.6,-,0.01,,Overcast,220,2013-08-19 17:54:00
2:41 PM,75.2,66.2,73,30.14,10.0,SSW,8.1,-,N/A,,Overcast,210,2013-08-19 18:41:00
2:50 PM,75.2,66.2,73,30.13,10.0,SSW,8.1,-,N/A,,Overcast,210,2013-08-19 18:50:00
2:54 PM,75.9,66.9,74,30.13,10.0,South,8.1,-,N/A,,Overcast,190,2013-08-19 18:54:00
3:25 PM,75.2,66.2,73,30.12,10.0,SW,5.8,-,N/A,,Overcast,220,2013-08-19 19:25:00
3:54 PM,77.0,66.9,71,30.12,10.0,SW,6.9,-,N/A,,Overcast,220,2013-08-19 19:54:00
4:10 PM,78.8,68.0,69,30.10,10.0,SSW,4.6,-,N/A,,Mostly Cloudy,200,2013-08-19 20:10:00
4:20 PM,78.8,68.0,69,30.10,10.0,SSE,5.8,-,N/A,,Scattered Clouds,150,2013-08-19 20:20:00
4:32 PM,78.8,66.2,65,30.10,10.0,Calm,Calm,-,N/A,,Mostly Cloudy,0,2013-08-19 20:32:00
4:54 PM,78.1,68.0,71,30.10,10.0,SSW,9.2,-,N/A,,Overcast,210,2013-08-19 20:54:00
5:23 PM,78.8,66.2,65,30.11,10.0,SW,6.9,-,N/A,,Scattered Clouds,220,2013-08-19 21:23:00
6:19 PM,77.0,68.0,74,30.11,10.0,West,8.1,-,N/A,,Mostly Cloudy,260,2013-08-19 22:19:00
6:54 PM,77.0,68.0,74,30.10,10.0,West,3.5,-,N/A,,Overcast,270,2013-08-19 22:54:00
7:54 PM,75.9,68.0,76,30.10,10.0,West,4.6,-,N/A,,Overcast,280,2013-08-19 23:54:00
8:54 PM,75.9,68.0,76,30.11,10.0,Calm,Calm,-,N/A,,Overcast,0,2013-08-20 00:54:00
10:44 PM,73.4,66.2,78,30.13,10.0,Calm,Calm,-,N/A,,Mostly Cloudy,0,2013-08-20 02:44:00
10:54 PM,73.0,66.9,81,30.13,9.0,Calm,Calm,-,N/A,,Scattered Clouds,0,2013-08-20 02:54:00
11:54 PM,71.1,66.0,84,30.12,7.0,Calm,Calm,-,N/A,,Clear,0,2013-08-20 03:54:00